Flag for USA

Past Weather in 31°58'18"N, 106°35'02"W, USA — Yesterday and Last 2 Weeks

Now
60 °F

Sunny.


Feels Like: 60 °F
Forecast: 65 / 42 °F
Wind: 3 mph from North

Location: El Paso International Airport

Current Time: Mar 28, 2020 at 4:00:06 pm

Latest Report: Mar 28, 2020 at 2:51 pm


Visibility: 10 mi

Pressure: 29.97 "Hg

Humidity: 15%

Dew Point: 13 °F

Location of 31°58'18"N, 106°35'02"WLocation

Past Weather in 31°58'18"N, 106°35'02"W — Graph

°F

31°58'18"N, 106°35'02"W Temperature Yesterday

Maximum temperature yesterday: 77 °F (at 2:51 pm)
Minimum temperature yesterday: 48 °F (at 11:51 pm)
Average temperature yesterday: 63 °F

High & Low Weather Summary for the Past Weeks

 TemperatureHumidityPressure
High84 °F (Mar 25, 3:51 pm)89% (Mar 16, 4:51 am)30.19 "Hg (Mar 16, 4:51 am)
Low41 °F (Mar 28, 6:51 am)6% (Mar 27, 4:51 pm)29.51 "Hg (Mar 27, 3:51 pm)
Average62 °F39%29.89 "Hg
* Reported Mar 13 2:51 pm — Mar 28 2:51 pm, 31°58'18"N, 106°35'02"W. Weather by CustomWeather, © 2020

Note: Actual official high and low records may vary slightly from our data, if they occured in-between our weather recording intervals... More about our weather records

31°58'18"N, 106°35'02"W Weather History for the Previous 24 Hours

Scroll right to see more
 ConditionsComfort  
Time TempWeatherWind HumidityBarometerVisibility
2:51 pm
Sat, Mar 28
60 °FSunny.3 mph15%29.97 "Hg10 mi
1:51 pm58 °FSunny.5 mph17%29.99 "Hg10 mi
12:51 pm57 °FSunny.5 mph18%30.01 "Hg10 mi
11:51 am53 °FSunny.5 mph22%30.03 "Hg10 mi
10:51 am52 °FSunny.9 mph23%30.04 "Hg10 mi
9:51 am50 °FSunny.10 mph27%30.05 "Hg10 mi
8:51 am46 °FSunny.5 mph35%30.06 "Hg10 mi
7:51 am43 °FSunny.3 mph42%30.04 "Hg10 mi
6:51 am41 °FClear.6 mph43%30.00 "Hg10 mi
5:51 am44 °FClear.13 mph35%29.94 "Hg10 mi
4:51 am44 °FClear.15 mph34%29.91 "Hg10 mi
3:51 am45 °FClear.22 mph33%29.88 "Hg10 mi
2:51 am46 °FClear.15 mph31%29.89 "Hg10 mi
1:51 am46 °FClear.23 mph29%29.89 "Hg10 mi
12:51 am47 °FClear.20 mph29%29.90 "Hg10 mi
11:51 pm
Fri, Mar 27
48 °FClear.25 mph25%29.87 "Hg10 mi
10:51 pm49 °FClear.23 mph27%29.85 "Hg10 mi
9:51 pm51 °FClear.28 mph28%29.83 "Hg10 mi
8:51 pm52 °FPassing clouds.24 mph31%29.78 "Hg10 mi
7:51 pm55 °FPassing clouds.26 mph33%29.71 "Hg10 mi
6:51 pm63 °FPassing clouds.25 mph23%29.62 "Hg10 mi
5:51 pm71 °FLow level haze.43 mph7%29.54 "Hg3 mi
4:51 pm74 °FScattered clouds.43 mph6%29.52 "Hg3 mi
Weather by CustomWeather, © 2020

See weather overview

Advertising